[[{"header":{"parameterUnit":"m.s-1","parameterCategory":1,"la1":30.2991,"la2":30.254,"lo1":-89.0895,"lo2":-89.0444,"dy":0.0017,"dx":0.0017,"nx":28,"ny":28,"refTime":"2024-12-09T09:00:00:Z","depth":0,"parameterNumber":2,"parameterNumberName":"U-component_of_WINDS"},"data":[0,0,0,0,0,0,0,0,0,0,0,0,0,0,0,0,0,0,0,0,0,0,0,0,0,0,0,0,0,0,0,0,0,0,0,0,0,0,0,0,0,0,0,0,0,0,0,0,0,0,0,0,0,0,0,0,0,0,5.2668,5.2669,0,5.2741,5.2741,5.2742,5.269,5.2687,5.2685,5.2683,5.2755,5.2758,5.2762,0,0,0,0,0,0,0,0,0,0,0,0,0,5.2482,5.2486,5.2668,5.2669,5.267,5.274,5.2741,5.2742,5.269,5.2687,5.2685,5.2682,5.2753,5.2758,5.2763,0,0,0,0,0,0,0,0,0,0,0,0,0,5.256,5.2487,5.2667,5.2652,5.2651,5.274,5.2741,5.2743,5.2691,5.2687,5.2684,5.2681,5.2752,5.2758,5.2764,5.2871,0,0,5.2782,5.2785,0,0,0,0,0,0,0,0,5.2555,5.2566,5.2653,5.2653,5.2653,5.2703,5.2702,5.2785,5.2692,5.2676,5.2683,5.2679,5.274,5.2747,5.2768,5.2874,5.2877,5.2783,5.2786,5.2789,5.2791,0,0,0,0,0,0,0,5.255,5.2563,5.2696,5.2655,5.2654,5.2641,5.2648,5.2718,5.2726,5.2677,5.2673,5.2683,5.2739,5.2762,5.2769,5.2878,5.2783,5.2788,5.2792,5.2794,5.3078,5.3082,0,0,0,0,0,0,5.2546,5.2559,5.2694,5.2699,5.2595,5.2647,5.2655,5.269,5.2725,5.2727,5.2686,5.268,5.2753,5.2762,5.2771,5.2901,5.2789,5.2795,5.2798,5.3074,5.3079,5.3083,0,0,0,0,0,0,5.2542,5.2559,5.2691,5.2628,5.2644,5.2654,5.2694,5.2693,5.2716,5.2732,5.2733,5.2708,5.2751,5.2763,5.2847,5.2902,5.2797,5.2803,5.307,5.3076,5.3081,5.3159,0,0,0,0,0,0,5.2537,5.2558,5.2599,5.2629,5.2647,5.2766,5.2697,5.2697,5.2727,5.2721,5.2753,5.2755,5.2749,5.2838,5.2853,5.2909,5.2808,5.3065,5.3072,5.3079,5.3152,5.3167,5.318,0,0,0,0,0,5.2531,5.2616,5.2601,5.2618,5.2699,5.2769,5.278,5.2772,5.2732,5.2773,5.2784,5.2754,5.2894,5.2847,5.2864,5.2922,5.3061,5.307,5.3079,5.3145,5.3164,5.318,0,0,0,0,0,0,5.259,5.262,5.2603,5.2701,5.2734,5.276,5.2812,5.2791,5.2835,5.2826,5.2814,5.2822,5.2911,5.2925,5.2872,5.3029,5.2971,5.2984,5.3016,5.3034,5.3048,5.3043,5.2813,0,0,0,0,0,5.2615,5.2671,5.2693,5.2778,5.2795,5.2801,5.2831,5.2823,5.2855,5.2868,5.2885,5.2917,5.2968,5.3002,5.305,5.3154,5.3161,5.3202,5.3216,5.3228,5.3239,5.3296,5.3316,5.3112,5.3112,5.3112,0,0,5.2666,5.2689,5.2725,5.279,5.2814,5.2872,5.2813,5.2875,5.2918,5.2877,5.2959,5.2972,5.3007,5.3102,5.3145,5.3117,5.3297,5.3239,5.3248,5.3253,5.3307,5.3327,5.3344,5.3118,5.3117,5.3116,0,0,5.2789,5.2812,5.2886,5.2912,5.295,5.2954,5.2972,5.3003,5.3011,5.3092,5.3064,5.3114,5.3202,5.3229,5.3254,5.3391,5.3365,5.3406,5.348,5.3537,5.3553,5.3567,5.3617,5.3635,5.3417,5.3417,5.3418,0,5.2848,5.2934,5.2926,5.2993,5.3023,5.2991,5.3066,5.3091,5.3142,5.3163,5.3131,5.3243,5.3264,5.3366,5.34,5.3421,5.3441,5.3402,5.3551,5.3566,5.3579,5.3626,5.3645,5.3422,5.3422,5.3421,5.3421,0,5.3005,5.3066,5.3121,5.3173,5.321,5.328,5.3282,5.332,5.331,5.3317,5.3402,5.3426,5.348,5.3503,5.3492,5.3604,5.3586,5.3553,5.3495,5.3603,5.3647,5.3665,5.3429,5.3427,5.3426,5.3425,0,0,5.3166,5.3215,5.3235,5.326,5.33,5.3347,5.3416,5.347,5.3503,5.354,5.3598,5.3675,5.3646,5.3675,5.3667,5.3717,5.3825,5.3678,5.3678,5.3705,5.3952,5.3977,5.3998,5.3809,5.3812,5.3815,5.3949,0,5.3292,5.3414,5.341,5.3523,5.358,5.3552,5.3612,5.3644,5.3653,5.3703,5.3712,5.3768,5.3724,5.3742,5.379,5.3802,5.3875,5.3792,5.3863,5.3866,5.3856,5.4021,5.4047,5.4172,5.3966,5.3969,5.3971,0,5.3454,5.3499,5.3619,5.3654,5.3677,5.3732,5.3782,5.383,5.3866,5.3869,5.3903,5.3888,5.3958,5.3899,5.3997,5.3941,5.397,5.3981,5.3985,5.3992,5.3925,5.4032,5.4212,5.4231,5.3998,5.3996,5.3994,0,5.3561,5.3651,5.3735,5.3757,5.3799,5.3838,5.3857,5.389,5.3923,5.3967,5.3989,5.404,5.4068,5.4108,5.4107,5.4064,5.4207,5.4147,5.4212,5.4212,5.4242,5.424,5.443,5.4261,5.4261,5.426,5.426,0,5.3702,5.3777,5.3784,5.3836,5.3919,5.3914,5.3997,5.4012,5.4041,5.4096,5.4074,5.4125,5.4121,5.4173,5.4173,5.4254,5.4267,5.4272,5.4271,5.4274,5.4274,5.4293,5.4284,5.4265,5.4264,5.4263,5.4262,0,5.3835,5.3843,5.3933,5.3966,5.3976,5.4037,5.4065,5.4114,5.4123,5.4192,5.4208,5.4221,5.4281,5.4285,5.4354,5.4354,5.4454,5.4443,5.4442,5.444,5.4505,5.4499,5.4713,5.4742,5.4554,5.4556,5.4557,0,5.3924,5.3982,5.4023,5.4058,5.408,5.4137,5.4172,5.417,5.4207,5.4254,5.4298,5.4356,5.4403,5.4501,5.4516,5.4569,5.456,5.4632,5.4568,5.457,5.4562,5.4559,5.4565,5.4644,5.4646,5.4648,5.4649,0,5.4083,5.4085,5.4137,5.4191,5.4233,5.4275,5.4314,5.4344,5.4347,5.439,5.4452,5.4489,5.4561,5.4619,5.4672,5.4691,5.4671,5.4669,5.4687,5.4691,5.4689,5.4692,5.4476,5.4664,5.4663,5.4661,5.4661,5.466,5.4198,5.4248,5.4286,5.4344,5.4374,5.4412,5.4461,5.4476,5.4529,5.4588,5.4584,5.4653,5.4689,5.4758,5.4782,5.4836,5.4811,5.4837,5.4844,5.485,5.4858,5.468,5.4845,5.4845,5.4844,5.4844,5.4844,0,5.4356,5.438,5.4434,5.4491,5.4537,5.4516,5.4559,5.4599,5.4661,5.4697,5.4744,5.4817,5.4874,5.4895,5.4952,5.4991,5.4983,5.5006,5.5003,5.5008,5.4876,5.4855,5.5011,5.5011,5.5011,5.5011,5.5011,5.5011,5.4444,5.4529,5.4536,5.4636,5.4658,5.4727,5.4754,5.4789,5.4818,5.49,5.4949,5.4963,5.4993,5.5052,5.5104,5.5109,5.513,5.5157,5.5158,5.5034,5.5017,5.5001,5.4982,5.5162,5.5162,5.5286,5.5287,5.5288]},{"header":{"parameterUnit":"m.s-1","parameterCategory":1,"la1":30.2991,"la2":30.254,"lo1":-89.0895,"lo2":-89.0444,"dy":0.0017,"dx":0.0017,"nx":28,"ny":28,"refTime":"2024-12-09T09:00:00:Z","depth":0,"parameterNumber":3,"parameterNumberName":"V-component_of_WINDS"},"data":[0,0,0,0,0,0,0,0,0,0,0,0,0,0,0,0,0,0,0,0,0,0,0,0,0,0,0,0,0,0,0,0,0,0,0,0,0,0,0,0,0,0,0,0,0,0,0,0,0,0,0,0,0,0,0,0,0,0,-8.4149,-8.415,0,-8.4252,-8.4253,-8.4254,-8.4173,-8.4169,-8.4166,-8.4162,-8.4263,-8.4268,-8.4274,0,0,0,0,0,0,0,0,0,0,0,0,0,-8.3878,-8.3884,-8.4149,-8.4151,-8.4152,-8.4252,-8.4253,-8.4255,-8.4173,-8.4169,-8.4165,-8.4161,-8.4261,-8.4268,-8.4275,0,0,0,0,0,0,0,0,0,0,0,0,0,-8.399,-8.3886,-8.4149,-8.4123,-8.4122,-8.4252,-8.4253,-8.4255,-8.4174,-8.4169,-8.4164,-8.4159,-8.4258,-8.4267,-8.4276,-8.4434,0,0,-8.4303,-8.4306,0,0,0,0,0,0,0,0,-8.3984,-8.4,-8.4126,-8.4125,-8.4124,-8.4194,-8.4194,-8.4315,-8.4175,-8.4154,-8.4162,-8.4156,-8.4244,-8.4253,-8.4284,-8.4439,-8.4443,-8.4303,-8.4309,-8.4313,-8.4315,0,0,0,0,0,0,0,-8.3976,-8.3995,-8.419,-8.4128,-8.4127,-8.4105,-8.4116,-8.4217,-8.4227,-8.4156,-8.415,-8.4163,-8.4242,-8.4276,-8.4286,-8.4445,-8.4303,-8.4311,-8.4316,-8.432,-8.4737,-8.4742,0,0,0,0,0,0,-8.3972,-8.3989,-8.4186,-8.4193,-8.404,-8.4115,-8.4126,-8.4177,-8.4225,-8.4228,-8.4168,-8.4159,-8.4263,-8.4275,-8.4289,-8.4479,-8.4313,-8.4321,-8.4326,-8.4731,-8.4738,-8.4744,0,0,0,0,0,0,-8.3966,-8.399,-8.4182,-8.409,-8.4113,-8.4125,-8.4183,-8.4182,-8.4215,-8.4235,-8.4236,-8.4201,-8.4259,-8.4276,-8.44,-8.4481,-8.4325,-8.4333,-8.4724,-8.4733,-8.4741,-8.4861,0,0,0,0,0,0,-8.3959,-8.3989,-8.405,-8.4092,-8.4118,-8.4293,-8.4188,-8.4187,-8.4231,-8.4221,-8.4266,-8.4268,-8.4257,-8.4387,-8.4408,-8.4491,-8.434,-8.4717,-8.4728,-8.4739,-8.4849,-8.4872,-8.4892,0,0,0,0,0,-8.3949,-8.4078,-8.4053,-8.4078,-8.4195,-8.4298,-8.4312,-8.4298,-8.4238,-8.4299,-8.4312,-8.4267,-8.4469,-8.44,-8.4424,-8.451,-8.4712,-8.4725,-8.4738,-8.484,-8.4868,-8.4891,0,0,0,0,0,0,-8.4043,-8.4083,-8.4056,-8.4202,-8.4248,-8.4284,-8.436,-8.4328,-8.439,-8.4378,-8.4356,-8.4367,-8.4497,-8.4515,-8.4438,-8.4667,-8.4581,-8.4599,-8.465,-8.4677,-8.4698,-8.4691,-8.4347,0,0,0,0,0,-8.4081,-8.4162,-8.4192,-8.4318,-8.4343,-8.4348,-8.4392,-8.4378,-8.4423,-8.4441,-8.4463,-8.4507,-8.4581,-8.463,-8.4698,-8.4852,-8.486,-8.4923,-8.4944,-8.4961,-8.4977,-8.5061,-8.5089,-8.4787,-8.4787,-8.4787,0,0,-8.4159,-8.4191,-8.4243,-8.4338,-8.4371,-8.4455,-8.4364,-8.4457,-8.4519,-8.4454,-8.4573,-8.4591,-8.4639,-8.4778,-8.4841,-8.4798,-8.5063,-8.4978,-8.4992,-8.4998,-8.5077,-8.5106,-8.5131,-8.4796,-8.4794,-8.4793,0,0,-8.4346,-8.4378,-8.4487,-8.4524,-8.4576,-8.4579,-8.4606,-8.4648,-8.4658,-8.4777,-8.4731,-8.4804,-8.4931,-8.4968,-8.5003,-8.5206,-8.5166,-8.5229,-8.5339,-8.5421,-8.5445,-8.5466,-8.5539,-8.5566,-8.5245,-8.5245,-8.5245,0,-8.4436,-8.4563,-8.4547,-8.4644,-8.4687,-8.4635,-8.4746,-8.4781,-8.4853,-8.4883,-8.4834,-8.4995,-8.5023,-8.5171,-8.5221,-8.5251,-8.528,-8.5223,-8.5443,-8.5464,-8.5483,-8.5553,-8.5581,-8.5252,-8.5251,-8.5251,-8.525,0,-8.4672,-8.476,-8.4842,-8.4916,-8.4968,-8.5071,-8.507,-8.5125,-8.5106,-8.5114,-8.5236,-8.5269,-8.5345,-8.5379,-8.536,-8.5525,-8.5497,-8.5446,-8.5359,-8.552,-8.5585,-8.5611,-8.5263,-8.526,-8.5258,-8.5256,0,0,-8.4919,-8.4984,-8.5015,-8.5048,-8.5104,-8.5171,-8.5272,-8.5348,-8.5395,-8.5447,-8.5531,-8.5641,-8.5595,-8.5635,-8.5621,-8.5693,-8.5853,-8.5633,-8.5634,-8.5673,-8.6037,-8.6075,-8.6106,-8.5827,-8.5832,-8.5836,-8.6033,0,-8.5108,-8.5286,-8.5276,-8.5442,-8.5524,-8.5477,-8.5565,-8.5608,-8.5619,-8.5689,-8.5699,-8.5778,-8.5712,-8.5736,-8.5805,-8.5819,-8.5925,-8.5804,-8.5904,-8.5908,-8.5894,-8.614,-8.618,-8.6365,-8.6058,-8.6062,-8.6066,0,-8.5353,-8.5416,-8.5592,-8.5637,-8.5671,-8.575,-8.582,-8.5888,-8.5935,-8.5938,-8.5985,-8.5959,-8.606,-8.5971,-8.611,-8.6028,-8.6068,-8.6081,-8.6088,-8.6096,-8.5997,-8.6156,-8.6423,-8.6451,-8.6105,-8.6102,-8.6099,0,-8.5517,-8.5645,-8.5768,-8.5798,-8.5853,-8.591,-8.5935,-8.5978,-8.6025,-8.6085,-8.6116,-8.6186,-8.6225,-8.628,-8.6273,-8.6209,-8.6415,-8.6325,-8.642,-8.642,-8.6465,-8.6463,-8.6743,-8.6491,-8.649,-8.649,-8.6489,0,-8.573,-8.584,-8.5842,-8.5918,-8.6039,-8.6026,-8.6146,-8.6164,-8.6204,-8.6281,-8.6243,-8.6316,-8.6303,-8.6376,-8.6371,-8.6488,-8.6505,-8.651,-8.6507,-8.6514,-8.6513,-8.654,-8.6527,-8.6497,-8.6495,-8.6494,-8.6493,0,-8.5934,-8.594,-8.607,-8.6113,-8.6126,-8.6214,-8.625,-8.632,-8.6328,-8.6427,-8.6449,-8.6461,-8.6545,-8.6545,-8.6639,-8.6636,-8.678,-8.6762,-8.6764,-8.6761,-8.6856,-8.6848,-8.7164,-8.7205,-8.6926,-8.6928,-8.6931,0,-8.607,-8.6153,-8.6206,-8.6256,-8.6286,-8.6367,-8.6416,-8.6406,-8.6458,-8.652,-8.6584,-8.6664,-8.6729,-8.6865,-8.6881,-8.6954,-8.6938,-8.7044,-8.6949,-8.6953,-8.6941,-8.6936,-8.6945,-8.7063,-8.7066,-8.7069,-8.7071,0,-8.6311,-8.6311,-8.6383,-8.6458,-8.6517,-8.6575,-8.6628,-8.667,-8.6667,-8.6727,-8.6814,-8.6864,-8.6962,-8.7043,-8.7114,-8.7138,-8.7104,-8.7101,-8.7127,-8.7134,-8.7133,-8.7136,-8.6816,-8.7093,-8.7091,-8.7089,-8.7088,-8.7087,-8.6485,-8.6558,-8.6607,-8.669,-8.6729,-8.678,-8.685,-8.6868,-8.6941,-8.7022,-8.7011,-8.7108,-8.7154,-8.7246,-8.7277,-8.7352,-8.7314,-8.7352,-8.7361,-8.7371,-8.7382,-8.7121,-8.7364,-8.7363,-8.7363,-8.7362,-8.7362,0,-8.6725,-8.6755,-8.6831,-8.6908,-8.6973,-8.6938,-8.6995,-8.7051,-8.7138,-8.7185,-8.725,-8.735,-8.7429,-8.7453,-8.7529,-8.7584,-8.7571,-8.7604,-8.76,-8.7607,-8.741,-8.7381,-8.7614,-8.7614,-8.7614,-8.7614,-8.7614,-8.7614,-8.6858,-8.698,-8.6986,-8.7127,-8.7155,-8.7252,-8.7288,-8.7334,-8.7372,-8.7487,-8.7553,-8.7569,-8.7606,-8.7685,-8.7756,-8.776,-8.779,-8.7831,-8.7829,-8.7646,-8.762,-8.7596,-8.7568,-8.7837,-8.7838,-8.8019,-8.8021,-8.8022]}]]